Year,Month,Day,Hour,Minute,Value (Times are PST for temperature in C)
2021,06,27,00,00,24.40
2021,06,27,00,01,24.40
2021,06,27,00,02,24.40
2021,06,27,00,03,24.40
2021,06,27,00,04,24.40
2021,06,27,00,05,24.40
2021,06,27,00,06,24.40
2021,06,27,00,07,24.60
2021,06,27,00,08,24.80
2021,06,27,00,09,24.80
2021,06,27,00,10,24.80
2021,06,27,00,11,24.70
2021,06,27,00,12,24.70
2021,06,27,00,13,24.60
2021,06,27,00,14,24.70
2021,06,27,00,15,24.70
2021,06,27,00,16,24.70
2021,06,27,00,17,24.70
2021,06,27,00,18,24.60
2021,06,27,00,19,24.70
2021,06,27,00,20,24.60
2021,06,27,00,21,24.50
2021,06,27,00,22,24.50
2021,06,27,00,23,24.40
2021,06,27,00,24,24.30
2021,06,27,00,25,24.30
2021,06,27,00,26,24.40
2021,06,27,00,27,24.40
2021,06,27,00,28,24.40
2021,06,27,00,29,24.30
2021,06,27,00,30,24.30
2021,06,27,00,31,24.30
2021,06,27,00,32,24.30
2021,06,27,00,33,24.30
2021,06,27,00,34,24.30
2021,06,27,00,35,24.40
2021,06,27,00,36,24.40
2021,06,27,00,37,24.40
2021,06,27,00,38,24.40
2021,06,27,00,39,24.40
2021,06,27,00,40,24.30
2021,06,27,00,41,24.20
2021,06,27,00,42,24.20
2021,06,27,00,43,24.10
2021,06,27,00,44,24.00
2021,06,27,00,45,23.90
2021,06,27,00,46,23.90
2021,06,27,00,47,23.80
2021,06,27,00,48,23.90
2021,06,27,00,49,23.90
2021,06,27,00,50,23.90
2021,06,27,00,51,23.90
2021,06,27,00,52,23.90
2021,06,27,00,53,23.80
2021,06,27,00,54,23.80
2021,06,27,00,55,23.80
2021,06,27,00,56,23.80
2021,06,27,00,57,23.80
2021,06,27,00,58,23.80
2021,06,27,00,59,23.80
2021,06,27,01,00,23.70
2021,06,27,01,01,23.70
2021,06,27,01,02,23.70
2021,06,27,01,03,23.60
2021,06,27,01,04,23.60
2021,06,27,01,05,23.50
2021,06,27,01,06,23.50
2021,06,27,01,07,23.40
2021,06,27,01,08,23.40
2021,06,27,01,09,23.40
2021,06,27,01,10,23.30
2021,06,27,01,11,23.30
2021,06,27,01,12,23.30
2021,06,27,01,13,23.30
2021,06,27,01,14,23.30
2021,06,27,01,15,23.20
2021,06,27,01,16,23.20
2021,06,27,01,17,23.10
2021,06,27,01,18,23.10
2021,06,27,01,19,23.10
2021,06,27,01,20,23.10
2021,06,27,01,21,23.10
2021,06,27,01,22,23.00
2021,06,27,01,23,23.00
2021,06,27,01,24,23.00
2021,06,27,01,25,22.90
2021,06,27,01,26,22.90
2021,06,27,01,27,22.90
2021,06,27,01,28,22.90
2021,06,27,01,29,22.90
2021,06,27,01,30,22.90
2021,06,27,01,31,22.80
2021,06,27,01,32,22.80
2021,06,27,01,33,22.80
2021,06,27,01,34,22.80
2021,06,27,01,35,22.80
2021,06,27,01,36,22.80
2021,06,27,01,37,22.80
2021,06,27,01,38,22.80
2021,06,27,01,39,22.80
2021,06,27,01,40,22.70
2021,06,27,01,41,22.70
2021,06,27,01,42,22.60
2021,06,27,01,43,22.60
2021,06,27,01,44,22.60
2021,06,27,01,45,22.50
2021,06,27,01,46,22.50
2021,06,27,01,47,22.50
2021,06,27,01,48,22.50
2021,06,27,01,49,22.60
2021,06,27,01,50,22.60
2021,06,27,01,51,22.60
2021,06,27,01,52,22.70
2021,06,27,01,53,22.60
2021,06,27,01,54,22.50
2021,06,27,01,55,22.40
2021,06,27,01,56,22.40
2021,06,27,01,57,22.50
2021,06,27,01,58,22.50
2021,06,27,01,59,22.60
2021,06,27,02,00,22.60
2021,06,27,02,01,22.60
2021,06,27,02,02,22.60
2021,06,27,02,03,22.50
2021,06,27,02,04,22.50
2021,06,27,02,05,22.50
2021,06,27,02,06,22.50
2021,06,27,02,07,22.50
2021,06,27,02,08,22.40
2021,06,27,02,09,22.40
2021,06,27,02,10,22.40
2021,06,27,02,11,22.30
2021,06,27,02,12,22.40
2021,06,27,02,13,22.30
2021,06,27,02,14,22.30
2021,06,27,02,15,22.40
2021,06,27,02,16,22.40
2021,06,27,02,17,22.40
2021,06,27,02,18,22.40
2021,06,27,02,19,22.40
2021,06,27,02,20,22.50
2021,06,27,02,21,22.40
2021,06,27,02,22,22.50
2021,06,27,02,23,22.50
2021,06,27,02,24,22.50
2021,06,27,02,25,22.50
2021,06,27,02,26,22.50
2021,06,27,02,27,22.50
2021,06,27,02,28,22.40
2021,06,27,02,29,22.40
2021,06,27,02,30,22.40
2021,06,27,02,31,22.40
2021,06,27,02,32,22.40
2021,06,27,02,33,22.40
2021,06,27,02,34,22.40
2021,06,27,02,35,22.40
2021,06,27,02,36,22.40
2021,06,27,02,37,22.40
2021,06,27,02,38,22.40
2021,06,27,02,39,22.40
2021,06,27,02,40,22.40
2021,06,27,02,41,22.40
2021,06,27,02,42,22.40
2021,06,27,02,43,22.40
2021,06,27,02,44,22.40
2021,06,27,02,45,22.40
2021,06,27,02,46,22.40
2021,06,27,02,47,22.40
2021,06,27,02,48,22.40
2021,06,27,02,49,22.40
2021,06,27,02,50,22.40
2021,06,27,02,51,22.40
2021,06,27,02,52,22.40
2021,06,27,02,53,22.40
2021,06,27,02,54,22.40
2021,06,27,02,55,22.50
2021,06,27,02,56,22.50
2021,06,27,02,57,22.50
2021,06,27,02,58,22.50
2021,06,27,02,59,22.50
2021,06,27,03,00,22.50
2021,06,27,03,01,22.50
2021,06,27,03,02,22.40
2021,06,27,03,03,22.40
2021,06,27,03,04,22.40
2021,06,27,03,05,22.40
2021,06,27,03,06,22.40
2021,06,27,03,07,22.40
2021,06,27,03,08,22.40
2021,06,27,03,09,22.40
2021,06,27,03,10,22.30
2021,06,27,03,11,22.30
2021,06,27,03,12,22.20
2021,06,27,03,13,22.20
2021,06,27,03,14,22.10
2021,06,27,03,15,22.10
2021,06,27,03,16,22.10
2021,06,27,03,17,22.20
2021,06,27,03,18,22.20
2021,06,27,03,19,22.20
2021,06,27,03,20,22.20
2021,06,27,03,21,22.20
2021,06,27,03,22,22.20
2021,06,27,03,23,22.30
2021,06,27,03,24,22.30
2021,06,27,03,25,22.30
2021,06,27,03,26,22.40
2021,06,27,03,27,22.40
2021,06,27,03,28,22.40
2021,06,27,03,29,22.40
2021,06,27,03,30,22.40
2021,06,27,03,31,22.40
2021,06,27,03,32,22.40
2021,06,27,03,33,22.40
2021,06,27,03,34,22.40
2021,06,27,03,35,22.50
2021,06,27,03,36,22.50
2021,06,27,03,37,22.60
2021,06,27,03,38,22.60
2021,06,27,03,39,22.50
2021,06,27,03,40,22.50
2021,06,27,03,41,22.60
2021,06,27,03,42,22.60
2021,06,27,03,43,22.50
2021,06,27,03,44,22.50
2021,06,27,03,45,22.50
2021,06,27,03,46,22.40
2021,06,27,03,47,22.40
2021,06,27,03,48,22.40
2021,06,27,03,49,22.30
2021,06,27,03,50,22.30
2021,06,27,03,51,22.30
2021,06,27,03,52,22.20
2021,06,27,03,53,22.20
2021,06,27,03,54,22.20
2021,06,27,03,55,22.20
2021,06,27,03,56,22.20
2021,06,27,03,57,22.20
2021,06,27,03,58,22.10
2021,06,27,03,59,22.10
2021,06,27,04,00,22.00
2021,06,27,04,01,21.90
2021,06,27,04,02,21.90
2021,06,27,04,03,21.80
2021,06,27,04,04,21.80
2021,06,27,04,05,21.80
2021,06,27,04,06,21.80
2021,06,27,04,07,21.70
2021,06,27,04,08,21.70
2021,06,27,04,09,21.60
2021,06,27,04,10,21.60
2021,06,27,04,11,21.60
2021,06,27,04,12,21.60
2021,06,27,04,13,21.60
2021,06,27,04,14,21.60
2021,06,27,04,15,21.60
2021,06,27,04,16,21.50
2021,06,27,04,17,21.50
2021,06,27,04,18,21.50
2021,06,27,04,19,21.50
2021,06,27,04,20,21.40
2021,06,27,04,21,21.40
2021,06,27,04,22,21.40
2021,06,27,04,23,21.40
2021,06,27,04,24,21.40
2021,06,27,04,25,21.40
2021,06,27,04,26,21.40
2021,06,27,04,27,21.40
2021,06,27,04,28,21.40
2021,06,27,04,29,21.40
2021,06,27,04,30,21.30
2021,06,27,04,31,21.30
2021,06,27,04,32,21.30
2021,06,27,04,33,21.40
2021,06,27,04,34,21.40
2021,06,27,04,35,21.40
2021,06,27,04,36,21.50
2021,06,27,04,37,21.50
2021,06,27,04,38,21.60
2021,06,27,04,39,21.60
2021,06,27,04,40,21.60
2021,06,27,04,41,21.60
2021,06,27,04,42,21.70
2021,06,27,04,43,21.70
2021,06,27,04,44,21.70
2021,06,27,04,45,21.70
2021,06,27,04,46,21.70
2021,06,27,04,47,21.70
2021,06,27,04,48,21.60
2021,06,27,04,49,21.60
2021,06,27,04,50,21.60
2021,06,27,04,51,21.70
2021,06,27,04,52,21.70
2021,06,27,04,53,21.70
2021,06,27,04,54,21.60
2021,06,27,04,55,21.60
2021,06,27,04,56,21.50
2021,06,27,04,57,21.50
2021,06,27,04,58,21.40
2021,06,27,04,59,21.40
2021,06,27,05,00,21.40
2021,06,27,05,01,21.30
2021,06,27,05,02,21.30
2021,06,27,05,03,21.30
2021,06,27,05,04,21.40
2021,06,27,05,05,21.40
2021,06,27,05,06,21.40
2021,06,27,05,07,21.40
2021,06,27,05,08,21.30
2021,06,27,05,09,21.30
2021,06,27,05,10,21.30
2021,06,27,05,11,21.30
2021,06,27,05,12,21.30
2021,06,27,05,13,21.40
2021,06,27,05,14,21.40
2021,06,27,05,15,21.40
2021,06,27,05,16,21.40
2021,06,27,05,17,21.40
2021,06,27,05,18,21.40
2021,06,27,05,19,21.30
2021,06,27,05,20,21.30
2021,06,27,05,21,21.30
2021,06,27,05,22,21.30
2021,06,27,05,23,21.30
2021,06,27,05,24,21.30
2021,06,27,05,25,21.30
2021,06,27,05,26,21.30
2021,06,27,05,27,21.30
2021,06,27,05,28,21.30
2021,06,27,05,29,21.30
2021,06,27,05,30,21.30
2021,06,27,05,31,21.30
2021,06,27,05,32,21.30
2021,06,27,05,33,21.30
2021,06,27,05,34,21.30
2021,06,27,05,35,21.30
2021,06,27,05,36,21.20
2021,06,27,05,37,21.20
2021,06,27,05,38,21.20
2021,06,27,05,39,21.20
2021,06,27,05,40,21.20
2021,06,27,05,41,21.30
2021,06,27,05,42,21.30
2021,06,27,05,43,21.30
2021,06,27,05,44,21.30
2021,06,27,05,45,21.30
2021,06,27,05,46,21.30
2021,06,27,05,47,21.30
2021,06,27,05,48,21.30
2021,06,27,05,49,21.30
2021,06,27,05,50,21.30
2021,06,27,05,51,21.30
2021,06,27,05,52,21.30
2021,06,27,05,53,21.30
2021,06,27,05,54,21.30
2021,06,27,05,55,21.40
2021,06,27,05,56,21.40
2021,06,27,05,57,21.40
2021,06,27,05,58,21.40
2021,06,27,05,59,21.40
2021,06,27,06,00,21.40
2021,06,27,06,01,21.40
2021,06,27,06,02,21.40
2021,06,27,06,03,21.40
2021,06,27,06,04,21.40
2021,06,27,06,05,21.40
